AL7BX-WX Weather Reports


time (UTC)temp
C
wind
direction
speed
KPH
gust
KPH
rain 1hr
cm
rain 24hr
cm
rain mn
cm
humidity
%
barometer
mb
20260902104503 17 189 9.7 20.9 0.00 0.00 0.00 63
20260902103603 17 174 6.4 20.9 0.00 0.00 0.00 62
20260902102913 17 173 8.0 19.3 0.00 0.00 0.00 62
20260902101803 17 179 11.3 22.5 0.00 0.00 0.00 61
20260902100903 18 183 11.3 22.5 0.00 0.00 0.00 60
20260902100003 18 181 11.3 24.1 0.00 0.00 0.00 59
20260902095613 18 180 12.9 25.7 0.00 0.00 0.00 58
20260902094503 18 181 11.3 25.7 0.00 0.00 0.00 58
20260902093603 18 183 9.7 19.3 0.00 0.00 0.00 58
20260902092703 18 185 9.7 22.5 0.00 0.00 0.00 57
20260902091803 18 179 8.0 17.7 0.00 0.00 0.00 57
20260902090903 18 181 9.7 25.7 0.00 0.00 0.00 56
20260902090213 18 177 9.7 25.7 0.00 0.00 0.00 56
20260902085403 18 184 11.3 22.5 0.00 0.00 0.00 57
20260902084503 18 187 11.3 24.1 0.00 0.00 0.00 57
20260902083603 18 186 11.3 24.1 0.00 0.00 0.00 56
20260902082703 18 185 12.9 24.1 0.00 0.00 0.00 55
20260902082014 18 181 11.3 20.9 0.00 0.00 0.00 56
20260902080903 18 186 9.7 22.5 0.00 0.00 0.00 55
20260902080003 18 180 9.7 20.9 0.00 0.00 0.00 55
20260902075403 18 174 8.0 19.3 0.00 0.00 0.00 55
20260902074503 18 182 9.7 22.5 0.00 0.00 0.00 53
20260902073813 18 182 11.3 22.5 0.00 0.00 0.00 52
20260902072703 18 187 12.9 27.4 0.00 0.00 0.00 52
20260902071803 18 180 9.7 24.1 0.00 0.00 0.00 51
20260902070903 18 174 8.0 19.3 0.00 0.00 0.00 50
20260902070004 18 170 6.4 16.1 0.00 0.00 0.00 49
20260902065614 18 157 4.8 16.1 0.00 0.00 0.00 49
20260902064503 19 194 6.4 16.1 0.00 0.00 0.00 48
20260902063603 19 171 6.4 20.9 0.00 0.03 0.00 48
20260902062703 20 176 4.8 11.3 0.00 0.03 0.00 47
20260902061803 20 169 6.4 17.7 0.00 0.03 0.00 46
20260902060903 20 158 4.8 12.9 0.00 0.03 0.00 46
20260902060008 20 152 6.4 11.3 0.00 0.03 0.00 46
20260902055403 19 161 3.2 11.3 0.00 0.03 0.03 47
20260902054503 19 140 1.6 9.7 0.00 0.03 0.03 47
20260902053603 19 174 1.6 6.4 0.00 0.03 0.03 47
20260902052914 19 192 1.6 6.4 0.00 0.03 0.03 46
20260902051803 20 165 3.2 9.7 0.00 0.03 0.03 46
20260902050903 19 170 1.6 6.4 0.00 0.03 0.03 46
20260902050006 19 144 1.6 6.4 0.00 0.03 0.03 46
20260902045613 20 175 0.0 3.2 0.00 0.03 0.03 46
20260902044503 20 164 1.6 11.3 0.00 0.03 0.03 44
20260902043603 20 151 3.2 9.7 0.00 0.03 0.03 44
20260902042703 20 179 1.6 8.0 0.00 0.03 0.03 44
20260902041803 21 166 3.2 11.3 0.00 0.03 0.03 43
20260902041114 21 153 4.8 14.5 0.00 0.03 0.03 41
20260902040003 21 151 6.4 29.0 0.00 0.03 0.03 41
20260902035403 21 148 6.4 17.7 0.00 0.03 0.03 40
20260902034503 21 143 6.4 19.3 0.00 0.03 0.03 41
20260902033603 21 149 6.4 17.7 0.00 0.03 0.03 42
20260902032703 20 171 3.2 19.3 0.00 0.03 0.03 43
20260902031803 20 198 1.6 11.3 0.00 0.03 0.03 44
20260902030903 20 203 3.2 9.7 0.00 0.03 0.03 43
20260902030003 20 216 1.6 6.4 0.00 0.03 0.03 42
20260902025612 20 216 1.6 9.7 0.00 0.03 0.03 41
20260902024714 21 197 4.8 9.7 0.00 0.03 0.03 40
20260902023603 21 195 4.8 14.5 0.00 0.03 0.03 39
20260902022703 22 179 8.0 16.1 0.00 0.03 0.03 38
20260902021803 22 186 8.0 19.3 0.00 0.05 0.03 38
20260902020903 22 190 8.0 20.9 0.00 0.05 0.03 37
20260902020003 22 189 8.0 17.7 0.00 0.05 0.03 36
20260902015403 22 193 9.7 19.3 0.00 0.08 0.03 36
20260902014503 23 194 12.9 27.4 0.00 0.10 0.03 35
20260902013603 23 192 12.9 25.7 0.00 0.13 0.03 34
20260902012703 23 182 12.9 25.7 0.00 0.13 0.03 34
20260902011803 24 185 16.1 37.0 0.00 0.13 0.03 32
20260902010903 24 188 16.1 38.6 0.00 0.13 0.03 31
20260902010003 25 180 17.7 41.8 0.00 0.13 0.03 30
20260902005403 25 181 17.7 38.6 0.00 0.13 0.03 31
20260902004503 25 181 19.3 41.8 0.00 0.13 0.03 31
20260902003603 25 185 20.9 41.8 0.00 0.13 0.03 31
20260902002703 25 181 19.3 35.4 0.00 0.13 0.03 33
20260902001803 25 181 19.3 40.2 0.00 0.13 0.03 33
20260902000904 26 177 17.7 35.4 0.00 0.13 0.03 34
20260902000003 26 173 17.7 32.2 0.00 0.13 0.03 33
20260901235403 26 180 22.5 45.1 0.00 0.13 0.03 35
20260901234503 26 183 22.5 51.5 0.00 0.13 0.03 35
20260901233603 26 183 24.1 48.3 0.00 0.13 0.03 35
20260901232703 26 186 20.9 46.7 0.00 0.13 0.03 35
20260901231803 26 181 24.1 45.1 0.00 0.13 0.03 36
20260901230903 26 178 17.7 35.4 0.00 0.13 0.03 36
20260901230004 26 168 14.5 38.6 0.00 0.13 0.03 35
20260901225403 26 144 14.5 27.4 0.00 0.13 0.03 38
20260901224503 26 149 12.9 29.0 0.00 0.13 0.03 38
20260901223603 26 163 14.5 29.0 0.00 0.13 0.03 38
20260901222703 26 162 12.9 24.1 0.00 0.13 0.03 37
20260901221803 26 162 12.9 32.2 0.00 0.13 0.03 40
20260901220903 26 168 14.5 29.0 0.00 0.13 0.03 37
20260901220003 26 162 14.5 30.6 0.00 0.13 0.03 38
20260901215403 26 159 12.9 27.4 0.00 0.13 0.03 39
20260901214503 26 192 14.5 32.2 0.00 0.13 0.03 39
20260901213813 26 188 16.1 32.2 0.00 0.13 0.03 40
20260901212703 26 195 14.5 35.4 0.00 0.13 0.03 40
20260901211803 26 185 12.9 29.0 0.00 0.13 0.03 38
20260901211113 26 182 14.5 30.6 0.00 0.13 0.03 39
20260901210004 26 175 14.5 32.2 0.00 0.13 0.03 38
20260901205403 26 184 17.7 33.8 0.00 0.13 0.03 40
20260901204503 26 192 17.7 37.0 0.00 0.13 0.03 42
20260901203603 26 187 16.1 37.0 0.00 0.13 0.03 40
20260901202703 25 187 16.1 37.0 0.00 0.13 0.03 40
20260901201803 25 180 19.3 41.8 0.00 0.13 0.03 44
20260901200903 25 183 14.5 41.8 0.00 0.13 0.03 40
20260901200003 25 185 19.3 38.6 0.00 0.13 0.03 44
20260901195403 25 188 19.3 35.4 0.00 0.13 0.03 40
20260901194503 24 170 17.7 41.8 0.00 0.13 0.03 44
20260901193604 24 170 19.3 37.0 0.00 0.13 0.03 47
20260901192703 24 184 19.3 35.4 0.00 0.13 0.03 44
20260901191803 24 172 16.1 35.4 0.00 0.13 0.03 47
20260901190903 24 163 16.1 35.4 0.00 0.13 0.03 46
20260901190214 24 159 16.1 33.8 0.00 0.13 0.03 48
20260901185403 23 145 11.3 25.7 0.00 0.13 0.03 48
20260901184503 23 148 11.3 24.1 0.00 0.13 0.03 51
20260901183603 23 167 14.5 30.6 0.00 0.13 0.03 52
20260901182703 22 180 14.5 29.0 0.00 0.13 0.03 51
20260901181803 23 157 14.5 29.0 0.00 0.13 0.03 48
20260901180903 22 169 12.9 29.0 0.00 0.13 0.03 53
20260901180004 22 175 12.9 29.0 0.00 0.13 0.03 59
20260901175403 21 179 12.9 27.4 0.00 0.13 0.03 59
20260901174503 22 186 12.9 25.7 0.00 0.13 0.03 57
20260901173603 22 185 14.5 30.6 0.00 0.13 0.03 56
20260901172703 22 177 14.5 35.4 0.00 0.13 0.03 55
20260901172012 22 192 14.5 30.6 0.00 0.13 0.03 56
20260901170903 21 214 9.7 24.1 0.00 0.13 0.03 63
20260901170213 21 207 11.3 25.7 0.00 0.13 0.03 62
20260901165403 21 199 8.0 24.1 0.00 0.13 0.03 65
20260901164503 20 206 9.7 29.0 0.00 0.13 0.03 67
20260901163603 20 210 9.7 24.1 0.00 0.13 0.03 69
20260901162703 18 203 9.7 19.3 0.00 0.13 0.03 72
20260901161803 18 192 11.3 20.9 0.00 0.13 0.03 70
20260901160903 18 188 9.7 19.3 0.00 0.13 0.03 71
20260901160213 18 184 6.4 14.5 0.00 0.13 0.03 72
20260901155612 18 184 8.0 16.1 0.00 0.13 0.03 72
20260901154503 18 178 9.7 19.3 0.00 0.13 0.03 72
20260901153603 18 197 8.0 16.1 0.00 0.13 0.03 71
20260901152703 18 182 8.0 16.1 0.00 0.13 0.03 69
20260901151803 18 162 6.4 17.7 0.00 0.13 0.03 70
20260901150903 18 191 6.4 19.3 0.00 0.13 0.03 71
20260901150003 18 169 6.4 12.9 0.00 0.13 0.03 71
20260901145612 18 164 4.8 12.9 0.00 0.13 0.03 72
20260901144503 17 146 8.0 17.7 0.00 0.13 0.03 73
20260901143603 17 157 6.4 16.1 0.00 0.13 0.03 74
20260901142703 16 171 6.4 8.0 0.00 0.13 0.03 76
20260901134503 15 136 1.6 8.0 0.00 0.13 0.03 78
20260901133603 15 134 3.2 6.4 0.00 0.13 0.03 78
20260901132703 15 138 3.2 6.4 0.00 0.13 0.03 77
20260901131803 15 128 3.2 8.0 0.00 0.13 0.03 77
20260901130903 15 128 3.2 8.0 0.00 0.13 0.03 77
20260901130003 15 141 4.8 9.7 0.00 0.13 0.03 78
20260901125612 15 144 4.8 11.3 0.00 0.13 0.03 78
20260901124503 15 142 4.8 11.3 0.00 0.13 0.03 80
20260901123603 15 141 4.8 14.5 0.00 0.13 0.03 83
20260901122703 13 132 3.2 8.0 0.00 0.13 0.03 85
20260901121803 13 155 0.0 6.4 0.00 0.13 0.03 86
20260901121113 12 0 0.0 0.0 0.00 0.13 0.03 86
20260901120003 12 0 0.0 0.0 0.00 0.13 0.03 86
20260901115403 12 0 0.0 0.0 0.00 0.13 0.03 86
20260901114713 12 0 0.0 0.0 0.00 0.13 0.03 87
20260901113813 12 0 0.0 0.0 0.00 0.13 0.03 87
20260901112912 11 0 0.0 0.0 0.00 0.13 0.03 87
20260901111803 10 0 0.0 0.0 0.00 0.13 0.03 85
20260901110903 10 0 0.0 0.0 0.00 0.13 0.03 85
20260901110003 10 0 0.0 0.0 0.00 0.13 0.03 84
20260901105403 11 0 0.0 0.0 0.00 0.13 0.03 84
20260901104713 11 0 0.0 0.0 0.00 0.13 0.03 83